SCP
0 0 0 0 0 0 0 0 0 0 0 0 0 0 0 0 0 0 0 0 0 0 0 0 0 0 0 0 0 0 0 0 0 0 0 0 0 0 0 0 0 0 0
0 0 0 0 0 0 0 0 0 0 0 0 0 0 0 0 0 0 0 0 0 0 0 0 0 0 0 0 0 0 0 0 0 0 0 0 0 0 0 0 0 0 0
0 0 0 0 0 0 0 0 0 0 0 0 0 0 0 0 0 0 0 0 0 0 0 0 0 0 0 0 0 0 0 0 0 0 0 0 0 0 0 0 0 0 0
0 0 0 0 0 0 0 0 0 0 0 0 0 0 0 0 0 0 0 0 0 0 0 0 0 0 0 0 0 0 0 0 0 0 0 0 0 0 0 0 0 0 0
0 0 0 0 0 0 0 0 0 0 0 0 0 0 0 0 0 0 0 0 0 0 0 0 0 0 0 0 0 0 0 0 0 0 0 0 0 0 0 0 0 0 0
0 0 0 0 0 0 0 0 0 0 0 0 0 0 0 0 0 0 0 0 0 0 0 0 0 0 0 0 0 0 0 0 0 0 0 0 0 0 0 0 0 0 0
0 0 0 0 0 0 0 0 0 0 0 0 0 0 0 0 0 0 0 0 0 0 0 0 0 0 0 0 0 0 0 0 0 0 0 0 0 0 0 0 0 0 0
0 0 0 0 0 0 0 0 0 0 0 0 0 0 0 0 0 0 0 0 0 0 0 0 0 0 0 0 0 0 0 0 0 0 0 0 0 0 0 0 0 0 0
0 0 0 0 0 0 0 0 0 0 0 0 0 0 0 0 0 0 0 0 0 0 0 0 0 0 0 0 0 0 0 0 0 0 0 0 0 0 0 0 0 0 0
0 0 0 0 0 0 0 0 0 0 0 0 0 0 0 0 0 0 0 0 0 0 0 0 0 0 0 0 0 0 0 0 0 0 0 0 0 0 0 0 0 0 0
0 0 0 0 0 0 0 0 0 0 0 0 0 0 0 0 0 0 0 0 0 0 0 0 0 0 0 0 0 0 0 0 0 0 0 0 0 0 0 0 0 0 0
0 0 0 0 0 0 0 0 0 0 0 0 0 0 0 0 0 0 0 0 0 0 0 0 0 0 0 0 0 0 0 0 0 0 0 0 0 0 0 0 0 0 0
0 0 0 0 0 0 0 0 0 0 0 0 0 0 0 0 0 0 0 0 0 0 0 0 0 0 0 0 0 0 0 0 0 0 0 0 0 0 0 0 0 0 0
0 0 0 0 0 0 0 0 0 0 0 0 1 1 1 1 0 0 0 0 0 0 0 0 0 0 0 0 0 0 0 0 0 0 0 0 0 0 0 0 0 0 0
0 0 0 0 0 0 0 0 0 0 1 1 1 1 1 1 1 1 0 0 0 0 0 0 0 0 0 0 0 0 0 0 0 0 0 0 0 0 0 0 0 0 0
0 0 0 0 0 0 0 0 0 0 0 1 1 1 1 1 1 1 1 0 0 0 0 0 0 0 0 0 0 0 0 0 0 0 0 0 0 0 0 0 0 0 0
0 0 0 0 0 0 0 0 0 0 0 0 1 1 1 1 1 1 1 1 1 1 0 0 0 0 0 0 0 0 0 0 0 0 0 0 0 0 0 0 0 0 0
0 0 0 0 0 0 0 0 0 0 0 0 0 0 1 1 1 1 1 1 1 1 1 0 0 0 0 0 0 0 0 0 0 0 0 0 0 0 0 0 0 0 0
0 0 0 0 0 0 0 0 0 0 0 0 0 0 0 0 1 1 1 1 1 1 1 1 0 0 0 0 0 0 0 0 0 0 0 0 0 0 0 0 0 0 0
0 0 0 0 0 0 0 0 0 0 0 0 0 0 0 0 0 1 1 1 1 1 1 1 0 0 0 0 0 0 0 0 0 0 0 0 0 0 0 0 0 0 0
0 0 0 0 0 0 0 0 0 0 0 0 0 0 0 0 0 0 0 1 1 1 1 1 0 0 0 0 0 0 0 0 0 0 0 0 0 0 0 0 0 0 0
0 0 0 0 0 0 0 0 0 0 0 0 0 0 0 0 0 0 0 0 0 1 1 1 1 0 0 0 0 0 0 0 0 0 0 0 0 0 0 0 0 0 0
0 0 0 0 0 0 0 0 0 0 0 0 0 0 0 0 0 0 0 0 0 0 0 0 0 0 0 0 0 0 0 0 0 0 0 0 0 0 0 0 0 0 0
0 0 0 0 0 0 0 0 0 0 0 0 0 0 0 0 0 0 0 0 0 0 0 0 0 0 0 0 0 0 0 0 0 0 0 0 0 0 0 0 0 0 0
0 0 0 0 0 0 0 0 0 0 0 0 0 0 0 0 0 0 0 0 0 0 0 0 0 0 0 0 0 0 0 0 0 0 0 0 0 0 0 0 0 0 0
0 0 0 0 0 0 0 0 0 0 0 0 0 0 0 0 0 0 0 0 0 0 0 0 0 0 0 0 0 0 0 0 0 0 0 0 0 0 0 0 0 0 0
Wind_Speed
4 4 3 3 4 4 5 5 5 6 6 7 7 7 6 6 5 5 4 12 14 15 16 17 16 16 16 15 15 15 15 15 15 15 16 16 16 15 16 16 17 17 17
5 4 4 4 4 4 4 5 6 6 5 5 6 7 7 6 6 6 5 8 15 17 18 19 19 19 19 19 19 18 18 18 18 18 19 19 18 17 18 18 19 19 20
6 6 5 5 5 5 6 5 6 5 5 5 6 7 6 7 7 8 8 6 7 15 19 21 21 21 22 22 22 21 20 20 20 20 21 20 19 19 19 20 21 21 22
9 7 6 6 6 6 5 5 6 5 5 5 4 5 5 6 8 8 7 8 7 7 14 21 22 22 23 24 24 24 23 22 21 21 22 21 20 20 21 21 22 22 24
11 9 8 7 7 6 6 6 6 5 6 6 6 6 6 6 7 8 9 9 8 8 8 14 20 22 23 24 25 25 25 24 23 22 22 22 21 21 22 21 22 23 24
11 10 8 9 8 6 7 7 7 6 5 5 6 6 6 7 7 8 9 8 8 9 9 10 10 13 21 24 26 26 26 25 25 24 23 22 21 22 21 21 22 22 23
11 11 9 8 8 8 9 8 7 8 7 5 4 5 6 7 9 7 7 7 9 10 10 12 10 9 8 17 23 26 26 25 24 24 23 22 22 21 20 20 20 20 20
9 9 10 8 8 8 9 10 9 7 6 7 6 5 5 6 8 10 11 12 11 8 10 11 10 10 9 7 11 20 23 23 23 23 22 21 20 19 18 17 17 18 18
8 8 9 8 8 9 9 10 9 10 8 7 8 7 6 8 4 6 11 11 9 7 7 7 9 10 10 8 8 14 19 20 22 22 21 20 18 16 16 16 15 15 14
11 11 10 10 10 10 11 11 12 11 11 10 8 10 9 5 5 4 4 6 8 8 8 7 8 9 10 8 11 14 17 19 22 21 20 19 17 16 16 14 12 10 11
11 12 11 10 11 11 12 13 12 13 12 13 10 7 10 10 11 9 7 5 5 7 9 9 9 9 10 10 9 13 18 19 21 21 20 19 17 16 13 9 7 10 12
5 7 9 10 10 11 13 14 14 13 13 13 12 11 9 7 9 11 13 10 8 6 8 9 10 9 8 9 12 18 20 20 21 21 20 19 16 12 9 9 9 11 13
5 6 7 9 9 10 11 12 13 14 14 14 14 13 12 13 8 8 12 14 11 7 8 10 11 11 10 9 10 18 18 19 19 20 20 18 14 12 11 10 11 12 12
6 7 7 6 8 9 10 11 11 13 12 14 15 15 13 13 12 12 12 12 13 11 9 11 8 12 11 11 13 18 12 18 18 19 19 17 15 14 12 11 11 11 12
6 8 9 9 8 8 9 10 10 12 13 14 15 16 15 13 12 11 11 12 13 16 15 11 10 10 11 10 14 12 10 16 19 19 18 16 17 15 13 12 11 11 11
8 9 8 9 9 9 9 9 9 11 13 14 12 15 16 13 12 11 11 12 13 16 17 8 9 8 10 9 13 11 11 17 19 20 19 18 17 15 14 13 12 11 10
10 10 10 9 9 9 9 9 10 11 13 13 12 14 17 14 13 12 11 12 13 13 18 15 7 7 8 7 6 6 7 9 11 20 20 19 17 17 16 14 12 10 8
11 11 11 11 11 10 9 9 11 11 12 13 14 14 16 13 15 14 13 14 14 15 16 19 10 6 7 7 7 8 7 8 8 17 20 20 19 18 16 13 11 10 9
11 11 11 12 12 12 11 11 11 11 11 11 12 14 16 16 17 14 15 15 13 13 14 15 14 6 4 3 5 6 7 6 9 13 19 19 18 16 14 12 10 10 10
11 12 12 13 13 13 13 12 11 10 10 10 11 13 15 16 17 16 15 16 15 15 15 15 13 7 4 3 4 6 7 8 8 8 12 13 14 15 13 11 11 11 11
13 12 13 13 13 12 11 14 14 13 12 12 12 13 14 17 19 18 16 15 14 14 14 14 14 9 8 6 8 8 10 8 7 5 6 6 6 5 6 9 12 12 13
12 13 13 14 14 13 19 21 17 14 13 13 14 14 14 14 17 20 22 24 22 18 16 15 14 14 15 14 10 10 9 8 7 6 7 5 5 5 5 5 10 13 14
11 11 11 12 13 15 20 19 17 14 13 13 14 14 14 12 16 15 18 21 22 25 25 19 18 18 16 15 14 14 12 8 7 7 6 4 4 5 5 7 14 15 14
10 11 11 11 11 14 17 15 18 13 13 14 14 15 16 16 14 17 17 17 17 17 18 17 18 17 14 12 17 15 11 7 7 4 4 5 4 4 5 5 13 14 14
10 10 11 12 12 11 14 15 16 11 13 16 16 15 17 17 20 21 19 19 19 14 10 11 13 12 13 15 16 12 11 10 5 4 2 4 3 2 2 2 6 12 12
11 12 13 12 10 10 14 17 16 9 12 14 15 15 18 20 23 24 20 19 20 15 6 3 2 3 3 10 17 12 13 11 6 5 5 5 3 3 1 2 1 2 3
Wind_Direction
192 211 206 200 191 194 195 200 212 230 209 206 212 221 233 227 227 217 201 201 208 219 230 238 247 251 251 251 252 253 253 254 255 258 260 259 259 262 267 270 273 276 278
193 200 205 209 199 202 205 198 209 228 226 215 218 216 216 221 230 232 223 215 217 221 229 236 242 247 250 250 251 252 253 254 254 255 257 260 261 262 264 267 269 271 273
198 196 204 208 202 204 208 208 220 226 227 222 220 222 221 217 218 221 221 219 217 221 226 235 240 244 247 250 250 251 251 252 254 255 257 260 262 264 265 268 270 272 273
199 200 204 211 204 202 209 211 213 220 226 228 230 233 231 231 233 229 224 221 218 219 225 232 238 242 247 249 251 252 252 251 251 254 257 260 262 264 266 269 272 274 275
205 200 208 210 205 207 211 216 212 210 221 226 226 229 230 229 230 229 229 226 220 218 219 226 229 234 241 248 252 254 254 254 253 253 256 259 262 264 266 269 272 275 278
211 206 212 213 205 209 216 214 214 213 218 218 229 234 232 232 232 231 230 228 226 224 220 222 226 231 234 243 251 256 257 257 256 254 255 256 258 261 264 268 272 277 282
212 209 214 212 210 217 220 215 208 214 221 213 234 257 259 245 240 238 235 234 232 227 223 227 228 225 229 236 244 251 254 254 254 253 253 254 255 258 263 268 273 279 286
220 217 215 214 214 220 223 219 213 214 218 203 209 230 260 263 242 236 236 237 235 227 231 231 225 218 217 221 233 241 246 248 250 250 249 249 252 256 260 265 272 281 290
233 233 227 219 220 222 230 226 218 216 220 215 205 200 216 236 255 239 230 230 222 219 226 229 229 224 220 219 225 234 233 236 243 246 247 247 247 248 253 262 274 286 298
221 222 223 221 223 225 230 229 224 224 220 225 220 219 223 206 221 270 257 227 213 218 224 228 230 230 224 220 222 223 225 229 237 240 243 243 240 243 252 263 275 287 294
224 220 220 224 230 232 234 234 230 226 224 226 223 219 229 236 237 244 259 244 227 217 214 217 220 221 222 223 222 224 224 225 234 238 241 238 237 243 253 258 260 270 277
254 230 222 224 231 237 241 242 242 235 232 229 227 222 213 218 224 231 244 248 243 231 218 222 225 221 219 219 218 218 218 221 231 237 236 234 235 233 216 227 247 263 274
290 266 240 228 230 235 240 242 244 244 238 234 233 233 230 232 223 219 236 250 251 239 224 229 228 226 223 218 221 218 215 213 218 226 230 231 223 199 202 221 245 261 272
316 314 303 272 247 239 240 242 245 247 244 241 240 239 239 239 234 229 233 243 255 253 235 235 225 224 223 217 218 210 210 205 209 218 222 222 200 195 203 220 241 258 270
326 327 323 315 301 277 257 246 246 247 246 245 245 245 245 246 241 238 238 236 244 258 255 234 229 223 221 218 212 203 196 201 204 210 210 200 192 197 207 222 236 250 265
334 330 326 320 314 308 300 285 270 260 255 251 247 246 246 245 244 240 240 241 238 246 259 243 230 225 220 219 207 196 195 190 196 201 195 188 191 201 212 221 230 245 261
333 329 324 318 311 306 304 301 295 289 280 274 265 257 253 246 244 241 240 241 242 241 252 257 232 226 213 203 187 188 177 179 190 193 189 189 195 204 213 220 228 239 247
328 325 322 318 310 302 293 288 288 289 287 287 285 281 274 263 253 247 242 241 241 239 245 256 249 217 203 198 188 189 185 187 189 194 192 194 201 208 214 219 226 231 239
323 320 317 315 312 309 303 293 284 283 282 284 287 288 286 279 270 259 249 244 242 239 238 246 249 222 189 157 172 198 197 202 193 195 195 198 205 213 216 223 229 236 243
321 319 318 316 314 312 309 305 305 303 297 291 287 284 284 282 278 273 265 254 246 241 237 238 242 220 181 161 164 182 196 203 201 186 193 196 207 213 219 228 236 243 245
320 317 316 315 314 314 314 325 326 320 312 306 299 292 287 283 279 278 276 272 261 250 242 238 237 221 194 174 195 195 201 191 196 177 178 187 190 200 214 236 240 236 239
317 317 318 318 320 321 320 321 328 329 320 312 308 303 297 289 286 283 276 270 263 258 253 247 241 233 219 207 196 192 185 170 194 185 172 191 180 199 199 198 227 235 238
313 312 314 315 316 314 313 323 339 333 323 315 312 310 308 302 298 294 291 282 268 255 247 248 252 245 232 211 193 193 192 183 180 163 153 181 189 209 199 211 225 235 240
313 312 309 306 305 307 314 330 339 336 323 318 316 314 313 312 307 301 299 295 285 268 252 246 249 251 243 219 194 189 177 123 84 118 137 161 186 199 199 206 231 242 251
313 311 310 306 304 307 319 332 341 333 324 321 320 318 314 311 309 311 310 304 295 281 272 262 256 255 239 201 170 148 148 146 137 163 153 149 169 166 188 226 246 251 243
308 310 307 303 307 321 329 337 337 326 321 321 319 315 310 308 310 314 311 305 297 287 251 206 130 106 144 165 163 161 159 154 129 151 168 158 155 147 210 271 249 233 233